TimeAKST,TemperatureF,Dew PointF,Humidity,Sea Level PressureIn,VisibilityMPH,Wind Direction,Wind SpeedMPH,Gust SpeedMPH,PrecipitationIn,Events,Conditions,WindDirDegrees,DateUTC
12:18 AM,21.2,19.4,93,29.80,0.8,East,25.3,34.5,0.02,Snow,Light Snow,90,2011-12-07 09:18:00
12:46 AM,19.4,19.4,100,29.78,0.5,East,26.5,36.8,0.02,Snow,Light Snow,90,2011-12-07 09:46:00
12:53 AM,19.9,19.0,96,29.79,0.8,East,31.1,40.3,0.02,Snow,Light Snow,90,2011-12-07 09:53:00
1:26 AM,19.4,19.4,100,29.77,0.8,East,26.5,39.1,0.02,Snow,Light Snow,90,2011-12-07 10:26:00
1:43 AM,21.2,19.4,93,29.76,0.8,East,29.9,39.1,0.03,Snow,Light Snow,90,2011-12-07 10:43:00
1:53 AM,19.9,19.0,96,29.75,1.0,East,31.1,35.7,0.03,Snow,Light Snow,90,2011-12-07 10:53:00
2:04 AM,21.2,19.4,93,29.74,0.8,East,26.5,36.8,0.00,Snow,Light Snow,90,2011-12-07 11:04:00
2:46 AM,21.2,19.4,93,29.71,1.0,East,23.0,33.4,0.00,Snow,Light Snow,90,2011-12-07 11:46:00
2:53 AM,21.0,19.0,92,29.71,1.0,East,26.5,33.4,0.01,Snow,Light Snow,80,2011-12-07 11:53:00
3:46 AM,21.2,19.4,93,29.67,0.5,East,29.9,35.7,0.02,Snow,Light Snow,80,2011-12-07 12:46:00
3:53 AM,21.0,19.9,96,29.67,0.5,East,28.8,36.8,0.02,Snow,Light Snow,80,2011-12-07 12:53:00
4:53 AM,21.9,19.9,92,29.62,0.5,East,26.5,39.1,0.02,Snow,Light Snow,80,2011-12-07 13:53:00
5:50 AM,21.2,19.4,93,29.57,0.5,East,27.6,36.8,0.02,Snow,Light Snow,80,2011-12-07 14:50:00
5:53 AM,21.0,19.9,96,29.57,0.5,East,26.5,36.8,0.02,Snow,Light Snow,80,2011-12-07 14:53:00
6:29 AM,21.2,19.4,93,29.55,0.5,East,25.3,39.1,0.02,Snow,Light Snow,80,2011-12-07 15:29:00
6:53 AM,21.9,19.9,92,29.54,0.2,East,28.8,38.0,0.03,Snow,Snow,90,2011-12-07 15:53:00
7:53 AM,21.9,21.0,96,29.49,0.2,East,31.1,39.1,0.04,Snow,Snow,90,2011-12-07 16:53:00
8:53 AM,23.0,21.9,96,29.44,0.2,East,28.8,36.8,0.04,Snow,Heavy Snow,90,2011-12-07 17:53:00
9:25 AM,24.8,23.0,93,29.41,0.5,East,29.9,38.0,0.02,Snow,Snow,90,2011-12-07 18:25:00
9:53 AM,24.1,23.0,96,29.40,0.5,East,31.1,42.6,0.03,Snow,Snow,90,2011-12-07 18:53:00
10:53 AM,24.1,23.0,96,29.38,0.5,East,32.2,42.6,0.03,Snow,Snow,90,2011-12-07 19:53:00
11:06 AM,24.8,23.0,93,29.37,0.5,East,34.5,40.3,0.00,Snow,Snow,90,2011-12-07 20:06:00
11:53 AM,24.1,23.0,96,29.36,0.5,East,26.5,36.8,0.01,Snow,Snow,90,2011-12-07 20:53:00
12:13 PM,24.8,23.0,93,29.35,0.2,East,31.1,36.8,0.01,Snow,Heavy Snow,90,2011-12-07 21:13:00
12:29 PM,24.8,23.0,93,29.35,0.2,East,29.9,39.1,0.01,Snow,Heavy Snow,90,2011-12-07 21:29:00
12:53 PM,24.1,24.1,100,29.35,0.2,East,29.9,-,0.02,Snow,Heavy Snow,90,2011-12-07 21:53:00
1:53 PM,25.0,25.0,100,29.33,0.2,East,23.0,29.9,0.02,Snow,Heavy Snow,100,2011-12-07 22:53:00
2:29 PM,26.6,26.6,100,29.32,1.0,East,24.2,31.1,0.03,Snow,Blowing Snow,100,2011-12-07 23:29:00
2:39 PM,26.6,26.6,100,29.32,1.0,East,23.0,-,0.03,Rain-Snow,Light Freezing Rain,100,2011-12-07 23:39:00
2:53 PM,27.0,27.0,100,29.32,1.0,East,20.7,28.8,0.03,Rain-Snow,Light Freezing Rain,100,2011-12-07 23:53:00
3:53 PM,28.0,28.0,100,29.31,1.0,East,16.1,-,0.01,Rain,Light Freezing Rain,90,2011-12-08 00:53:00
4:21 PM,28.4,28.4,100,29.31,1.0,East,16.1,-,0.00,Rain,Light Freezing Rain,90,2011-12-08 01:21:00
4:51 PM,28.4,28.4,100,29.30,1.0,East,15.0,-,0.00,Snow,Light Snow,90,2011-12-08 01:51:00
4:53 PM,28.9,28.9,100,29.31,1.0,East,15.0,-,0.00,Snow,Light Snow,90,2011-12-08 01:53:00
5:22 PM,28.4,28.4,100,29.29,5.5,East,13.8,-,0.01,Rain,Light Freezing Rain,80,2011-12-08 02:22:00
5:38 PM,28.4,28.4,100,29.29,5.5,East,18.4,-,0.02,Snow,Light Snow,80,2011-12-08 02:38:00
5:51 PM,28.4,28.4,100,29.29,1.5,East,16.1,-,0.03,Snow,Light Snow,90,2011-12-08 02:51:00
5:53 PM,28.9,28.9,100,29.29,1.5,East,15.0,-,0.03,Snow,Light Snow,80,2011-12-08 02:53:00
6:53 PM,30.0,30.0,100,29.28,2.0,East,16.1,-,0.03,Snow,Light Snow,90,2011-12-08 03:53:00
7:24 PM,30.2,30.2,100,29.27,1.0,East,17.3,-,0.03,Snow,Light Snow,100,2011-12-08 04:24:00
7:45 PM,30.2,30.2,100,29.27,3.0,East,17.3,-,0.05,Snow,Light Snow,90,2011-12-08 04:45:00
7:51 PM,30.2,30.2,100,29.27,3.0,East,17.3,-,0.05,Snow,Light Snow,100,2011-12-08 04:51:00
7:53 PM,30.9,30.9,100,29.27,2.5,East,17.3,-,0.05,Snow,Light Snow,100,2011-12-08 04:53:00
8:51 PM,32.0,32.0,100,29.26,1.0,ESE,17.3,-,0.03,Snow,Light Snow,110,2011-12-08 05:51:00
8:53 PM,32.0,32.0,100,29.26,1.2,East,18.4,-,0.03,Snow,Light Snow,100,2011-12-08 05:53:00
9:51 PM,32.0,32.0,100,29.26,2.5,SE,15.0,-,0.03,Snow,Light Snow,130,2011-12-08 06:51:00
9:53 PM,32.0,32.0,100,29.26,3.0,SE,15.0,-,0.03,Snow,Light Snow,130,2011-12-08 06:53:00
10:53 PM,33.1,33.1,100,29.26,10.0,SE,16.1,-,0.00,,Overcast,140,2011-12-08 07:53:00
11:53 PM,33.1,32.0,96,29.26,4.0,SE,15.0,-,0.01,Snow,Light Snow,130,2011-12-08 08:53:00